TV
NORAD ID: 36032
Int'l Code: 2009-058A
Perigee: 35,784.8 km
Apogee: 35,802.0 km
Inclination: 0.0 °
Period: 1,436.1 minutes
Semi major axis: 42164 km
Launch date: October 29, 2009
Source: (SES)
Comments: NSS 12 was manufactured by Space Systems/Loral and has a 15-year design life the 12,400-pound (5,625-kg). The satellite carries 48 Ku-band and 40 C-band transponders. It will be parked in geostationary orbit over the equator at 57 degrees East longitude to take the place of the aging NSS 703 satellite, which was launched aboard an Atlas 2AS rocket from Cape Canaveral in 1994.
Two Line Element Set (TLE):
1 36032U 09058A 13143.23263808 .00000000 00000-0 10000-3 0 6777
2 36032 000.0450 054.1012 0002036 009.8925 317.8208 01.00273012 10749
Source: AFSPC
NASA's NSSDC Master Catalog entry for NSS 12